"Pseudo-MPEC" for P1163oU

Created 2020 Sep 18 11:07:37 UT using Find_Orb

Click here for an explanation of pseudo-MPECs

 
 Astrometry: 
     P1163oU  C2020 09 14jpjnVoWF8xv#3tQ2,_uqQqa'B:qrpah`Vx0gxH?t$CaRtt93I/*!F51
     P1163oU  C2020 09 14F\I:TA0;cKKa[8`]24aUvn)p-=?!tB!WE1fOQRkfD+IV?e1oYo?fF51
     P1163oU  C2020 09 1429\g3Xij$+!je\t=4?)2J-iCrT9QIXqAstrometry5q-#+elOiQ+F51
     P1163oU  C2020 09 154gb3!'q3+$VNv1g'4RJq_'V$s,H$76@$xTYYKld)#l%hZ`Zl+Qa/F51
     P1163oU  C2020 09 15ZHW89GY=ygPXlvvuyiTg#nD7`$v7f8`29SYLpY9F7_ChZv1hh\b%F51
     P1163oU  C2020 09 15B@U3,n3a.Eb%2^?3O$0q8,(JpfO^-+Kmy^Ta^.I=46!redacted;F51
     P1163oU  C2020 09 15-I*e3#?^]DUS0^7qibeB!s*_(SCW$l;i%=Gy^w18-oOY9lD[m=e,F51
     P1163oU  C2020 09 16ysbp?t/Z=hRdA.I?ahj_'6]c)T(iT!Q$Jx'+;o7ZkE)/D5,hth%WF51
     P1163oU  C2020 09 16+bf3R@5)D-Tv49k]PKNO.^mRsSAHuFY.E::?)xc6R9$E+aO0j$?NF51
     P1163oU  C2020 09 16qK!$lIl)UNtonWm1Gy%KxdgMtWQ9_?`'1d[Xm;3uj\CG*/I]4t\xF51
     P1163oU  C2020 09 17;/rr;fWq+rxp\3()O;X?R@\1i?yUwYeI,Zi=QNi*y%='.lwAeOC`F51
     P1163oU  C2020 09 17e.click)^-G:^[Y-A9Q^j%Nt$S8,^]7here$24dwBm5)oOgP.NqGF51
     P1163oU  C2020 09 17%/l_7f=EX#;q`Rforurf9I.,_kUh2+Q`VR@@D%WeBVCFqn,ICY5\F51
     P1163oU  C2020 09 17\wCABxdT^;;nm548:FW66tIwwlV3O8dL4-JR;bmVW:kkR_kcPndfF51
     P1163oU  C2020 09 17Bg=?YsRbfqhTX9,s!S*2mOX5Ic?=explanation'__n#%(P1Dp\3F51
     P1163oU  C2020 09 17J:0h[crn1GL16uNUmV;,$e`nQ+e3ri(xTpY=BM(iSm)B5vR*\0HHF52
     P1163oU  C2020 09 17qqy6ftYHL3++:33*f'do#SEU^(e`P6W)lGI@'rlnjxy+egiQHS!KF51
     P1163oU  C2020 09 17`FZDNy+X6a(eIy];mMmGXX4Gd\Tea;1A_:@Dr0a49%y$\1Kc%rv7F51
     P1163oU  C2020 09 17,C!BRf)Gx$,lE+d/FR%Q]gP.Q/'MFgJ0Vhm#@rd2qoQ;)]@5!W+eF52
     P1163oU  C2020 09 17-nF4oh_qRo9Es4=]h,QI!5,uJ-RLm=Z;H0,a[^Wu)P/!g/iM;8NPF52

Station data:
(F51) Pan-STARRS 1, Haleakala  (N20.707235 W156.255910)  US/Hawaii.
   Observers N. Primak, A. Schultz, S. Watters, J. Thiel, T. Goggia. Measurer
   PS1 Science Consortium. 1.8-m Ritchey-Chrétien + CCD.
(F52) Pan-STARRS 2, Haleakala  (N20.707384 W156.255910)  US/Hawaii. 1.8-m
   Ritchey-Chrétien + CCD.

Orbital elements:  P1163oU
   Perihelion 2020 Feb 12.595258 TT = 14:17:10 (JD 2458892.095258)
Epoch 2020 Sep 17.0 TT = JDT 2459109.5   Earth MOID: 0.7670   AutoNEOCP
M  54.58392732                      (J2000 ecliptic)
n   0.25107054     Peri.  239.36629
a   2.48850702     Node    49.37293
e   0.3381439      Incl.   31.39997
P   3.93           H   19.0     G   0.15   q 1.64703330  Q 3.32998073
From 20 observations 2020 Sept. 14-17; mean residual 0".15
Residuals in arcseconds: 
200914 F51  .05-  .04-    200916 F51  .12+  .08-    200917 F51  .06-  .02+    
200914 F51  .05+  .03-    200916 F51  .13-  .04-    200917 F52  .03+  .63+    
200914 F51  .01-  .09+    200916 F51  .01+  .06+    200917 F51  .10-  .11-    
200915 F51  .10+  .04+    200917 F51  .02-  .01+    200917 F51  .11+  .06-    
200915 F51  .11-  .14-    200917 F51  .07-  .03+    200917 F52  .06-  .01-    
200915 F51  .01-  .02-    200917 F51  .06-  .01+    200917 F52  .02+  .53-    
200915 F51  .01-  .13+    200917 F51  .12-  .04-    

Ephemerides (geocentric):
Date (UTC) HH   RA              Dec         delta   r     elong  mag
---- -- -- --  -------------   -----------  ------ ------ -----  ---
2020 09 18 11  03 19 56.369   -03 12 03.60  1.5062 2.2499 126.1 22.7
2020 09 18 12  03 19 54.837   -03 11 56.24  1.5060 2.2501 126.2 22.7
2020 09 18 13  03 19 53.301   -03 11 48.87  1.5057 2.2502 126.2 22.7
2020 09 18 14  03 19 51.761   -03 11 41.50  1.5055 2.2504 126.2 22.7
2020 09 18 15  03 19 50.217   -03 11 34.12  1.5052 2.2505 126.3 22.7
2020 09 18 16  03 19 48.669   -03 11 26.75  1.5050 2.2507 126.3 22.7
2020 09 18 17  03 19 47.117   -03 11 19.37  1.5047 2.2509 126.4 22.7
2020 09 18 18  03 19 45.561   -03 11 11.99  1.5045 2.2510 126.4 22.7
2020 09 18 19  03 19 44.001   -03 11 04.60  1.5042 2.2512 126.5 22.7
2020 09 18 20  03 19 42.437   -03 10 57.21  1.5040 2.2514 126.5 22.7
2020 09 18 21  03 19 40.870   -03 10 49.82  1.5037 2.2515 126.5 22.7
2020 09 18 22  03 19 39.298   -03 10 42.43  1.5035 2.2517 126.6 22.7
2020 09 18 23  03 19 37.722   -03 10 35.03  1.5032 2.2519 126.6 22.7
2020 09 19 00  03 19 36.143   -03 10 27.63  1.5030 2.2520 126.7 22.7
2020 09 19 01  03 19 34.559   -03 10 20.23  1.5027 2.2522 126.7 22.7
2020 09 19 02  03 19 32.972   -03 10 12.82  1.5025 2.2523 126.8 22.7
2020 09 19 03  03 19 31.381   -03 10 05.41  1.5022 2.2525 126.8 22.7
2020 09 19 04  03 19 29.785   -03 09 58.00  1.5020 2.2527 126.8 22.7
2020 09 19 05  03 19 28.186   -03 09 50.58  1.5017 2.2528 126.9 22.7
2020 09 19 06  03 19 26.583   -03 09 43.16  1.5015 2.2530 126.9 22.7
2020 09 19 07  03 19 24.976   -03 09 35.74  1.5012 2.2532 127.0 22.7
2020 09 19 08  03 19 23.365   -03 09 28.31  1.5010 2.2533 127.0 22.7
2020 09 19 09  03 19 21.750   -03 09 20.88  1.5008 2.2535 127.1 22.6
2020 09 19 10  03 19 20.131   -03 09 13.45  1.5005 2.2536 127.1 22.6
2020 09 19 11  03 19 18.508   -03 09 06.02  1.5003 2.2538 127.1 22.6
2020 09 19 12  03 19 16.881   -03 08 58.58  1.5000 2.2540 127.2 22.6
2020 09 19 13  03 19 15.250   -03 08 51.14  1.4998 2.2541 127.2 22.6
2020 09 19 14  03 19 13.616   -03 08 43.69  1.4995 2.2543 127.3 22.6
2020 09 19 15  03 19 11.977   -03 08 36.24  1.4993 2.2545 127.3 22.6
2020 09 19 16  03 19 10.335   -03 08 28.79  1.4990 2.2546 127.4 22.6
2020 09 19 17  03 19 08.688   -03 08 21.33  1.4988 2.2548 127.4 22.6
2020 09 19 18  03 19 07.038   -03 08 13.88  1.4985 2.2549 127.4 22.6
2020 09 19 19  03 19 05.383   -03 08 06.41  1.4983 2.2551 127.5 22.6
2020 09 19 20  03 19 03.725   -03 07 58.95  1.4981 2.2553 127.5 22.6
2020 09 19 21  03 19 02.063   -03 07 51.48  1.4978 2.2554 127.6 22.6
2020 09 19 22  03 19 00.397   -03 07 44.00  1.4976 2.2556 127.6 22.6
2020 09 19 23  03 18 58.727   -03 07 36.53  1.4973 2.2558 127.7 22.6
2020 09 20 00  03 18 57.053   -03 07 29.05  1.4971 2.2559 127.7 22.6
2020 09 20 01  03 18 55.375   -03 07 21.56  1.4968 2.2561 127.8 22.6
2020 09 20 02  03 18 53.693   -03 07 14.08  1.4966 2.2563 127.8 22.6
2020 09 20 03  03 18 52.007   -03 07 06.59  1.4964 2.2564 127.8 22.6
2020 09 20 04  03 18 50.318   -03 06 59.09  1.4961 2.2566 127.9 22.6
2020 09 20 05  03 18 48.624   -03 06 51.59  1.4959 2.2567 127.9 22.6
2020 09 20 06  03 18 46.927   -03 06 44.09  1.4956 2.2569 128.0 22.6
2020 09 20 07  03 18 45.225   -03 06 36.59  1.4954 2.2571 128.0 22.6
2020 09 20 08  03 18 43.520   -03 06 29.08  1.4952 2.2572 128.1 22.6
2020 09 20 09  03 18 41.811   -03 06 21.56  1.4949 2.2574 128.1 22.6
2020 09 20 10  03 18 40.098   -03 06 14.05  1.4947 2.2576 128.1 22.6